Location: Galaxy Quest Observatory
(44.3404°N, 69.0569°W)
Time: 06:59:27
(UTC-04:00)

N. Korean satellite - Pass Details

Date: 10 April 2020
Orbit: 455 x 505 km, 97.2° (Epoch: 30 May)

Event Time Altitude Azimuth Distance (km) Brightness Sun altitude
Rises 05:11:38 0° 36° (NE) 2,482 11.2 -9.2°
Reaches altitude 10° 05:15:21 10° 78° (ENE) 1,599 10.8 -8.6°
Maximum altitude 05:16:02 10° 90° (E) 1,570 10.5 -8.4°
Drops below altitude 10° 05:16:43 10° 101° (ESE) 1,597 10.2 -8.3°
Sets 05:20:25 0° 144° (SE) 2,467 10.4 -7.7°
